WBANNO,USDM_WEEK,LONGITUDE,LATITUDE,SMVWC_5_CM_MEAN,SMANOM_5_CM_MEAN,SMPERC_5_CM_30COUNTS,SMPERC_5_CM_70COUNTS,SMVWC_10_CM_MEAN,SMANOM_10_CM_MEAN,SMPERC_10_CM_30COUNTS,SMPERC_10_CM_70COUNTS,SMVWC_20_CM_MEAN,SMANOM_20_CM_MEAN,SMPERC_20_CM_30COUNTS,SMPERC_20_CM_70COUNTS,SMVWC_50_CM_MEAN,SMANOM_50_CM_MEAN,SMPERC_50_CM_30COUNTS,SMPERC_50_CM_70COUNTS,SMVWC_100_CM_MEAN,SMANOM_100_CM_MEAN,SMPERC_100_CM_30COUNTS,SMPERC_100_CM_70COUNTS,SMVWC_TOP_CM_MEAN,SMANOM_TOP_CM_MEAN,SMPERC_TOP_CM_30COUNTS,SMPERC_TOP_CM_70COUNTS,SMVWC_COLUMN_CM_MEAN,SMANOM_COLUMN_CM_MEAN,SMPERC_COLUMN_CM_30COUNTS,SMPERC_COLUMN_CM_70COUNTS
53182,20110618,-101.61,36.57,,,,,,,,,,,,,,,,,,,,,,,,,,,,
53182,20110619,-101.61,36.57,,,,,,,,,,,,,,,,,,,,,,,,,,,,
53182,20110620,-101.61,36.57,,,,,,,,,,,,,,,,,,,,,,,,,,,,
53182,20110621,-101.61,36.57,,,,,,,,,,,,,,,,,,,,,,,,,,,,
53182,20110622,-101.61,36.57,,,,,,,,,,,,,,,,,,,,,,,,,,,,
53182,20110623,-101.61,36.57,,,,,,,,,,,,,,,,,,,,,,,,,,,,
53182,20110624,-101.61,36.57,0.273,1.46,0,1,0.274,0.8,0,1,0.209,0.55,0.08,0.807,0.232,0.07,0,0.113,0.2,-0.4,0.36,0,0.273,1.1,0,1,0.241,0.45,0,0.623
53182,20110625,-101.61,36.57,0.269,1.42,0,1,0.27,0.77,0,1,0.22,0.74,0,0.747,0.228,0.05,0,0.105,0.201,-0.39,0.315,0,0.269,1.06,0,1,0.237,0.4,0,0.531
53182,20110626,-101.61,36.57,0.259,1.31,0,1,0.261,0.68,0,1,0.208,0.57,0,0.62,0.218,-0.04,0,0,0.202,-0.37,0.223,0,0.26,0.97,0,1,0.23,0.29,0,0.41
53182,20110627,-101.61,36.57,0.249,1.2,0,1,0.253,0.61,0,0.97,0.197,0.4,0,0.476,0.208,-0.12,0.054,0,0.203,-0.35,0.096,0,0.251,0.87,0,1,0.222,0.19,0,0.265
53182,20110628,-101.61,36.57,0.239,1.07,0,0.976,0.246,0.55,0,0.837,0.187,0.23,0.096,0.331,0.2,-0.18,0.187,0,0.204,-0.34,0.078,0,0.242,0.77,0,0.922,0.215,0.1,0,0.12
53182,20110629,-101.61,36.57,0.228,0.92,0,0.831,0.241,0.49,0,0.693,0.179,0.08,0.241,0.187,0.192,-0.23,0.331,0,0.203,-0.34,0.157,0,0.234,0.67,0,0.777,0.209,0.03,0.108,0
53182,20110630,-101.61,36.57,0.217,0.76,0,0.687,0.235,0.42,0,0.548,0.172,-0.07,0.386,0.042,0.186,-0.26,0.476,0,0.203,-0.35,0.259,0,0.226,0.56,0,0.633,0.202,-0.05,0.253,0
53182,20110701,-101.61,36.57,0.205,0.58,0,0.542,0.229,0.34,0,0.404,0.166,-0.21,0.53,0,0.18,-0.29,0.62,0,0.202,-0.35,0.337,0,0.217,0.43,0,0.488,0.196,-0.12,0.398,0
53182,20110702,-101.61,36.57,0.192,0.38,0.03,0.398,0.222,0.24,0,0.259,0.161,-0.34,0.675,0,0.175,-0.32,0.765,0,0.201,-0.35,0.428,0,0.207,0.28,0.018,0.343,0.19,-0.19,0.542,0
53182,20110703,-101.61,36.57,0.18,0.2,0.173,0.262,0.215,0.13,0.101,0.125,0.157,-0.45,0.81,0,0.172,-0.34,0.899,0,0.201,-0.35,0.482,0,0.197,0.14,0.161,0.208,0.185,-0.26,0.679,0
53182,20110704,-101.61,36.57,0.168,0.02,0.315,0.119,0.207,-0.01,0.244,0.012,0.153,-0.57,0.952,0,0.168,-0.36,0.988,0,0.2,-0.35,0.601,0,0.188,-0.03,0.304,0.065,0.179,-0.33,0.821,0
53182,20110705,-101.61,36.57,0.158,-0.14,0.458,0,0.199,-0.16,0.387,0,0.15,-0.67,1,0,0.166,-0.38,1,0,0.199,-0.35,0.661,0,0.178,-0.2,0.446,0,0.174,-0.39,0.964,0
53182,20110706,-101.61,36.57,0.149,-0.27,0.601,0,0.191,-0.33,0.53,0,0.148,-0.76,1,0,0.163,-0.39,1,0,0.199,-0.35,0.696,0,0.17,-0.36,0.589,0,0.17,-0.45,1,0
53182,20110707,-101.61,36.57,0.141,-0.38,0.744,0,0.183,-0.5,0.673,0,0.146,-0.83,1,0,0.161,-0.41,1,0,0.198,-0.35,0.72,0,0.162,-0.51,0.732,0,0.166,-0.5,1,0
53182,20110708,-101.61,36.57,0.134,-0.48,0.887,0,0.175,-0.68,0.815,0,0.144,-0.89,1,0,0.159,-0.42,1,0,0.197,-0.35,0.786,0,0.155,-0.65,0.875,0,0.162,-0.54,1,0
53182,20110709,-101.61,36.57,0.129,-0.56,1,0,0.167,-0.86,0.958,0,0.143,-0.94,1,0,0.158,-0.43,1,0,0.197,-0.35,0.833,0,0.148,-0.78,1,0,0.159,-0.58,1,0
53182,20110710,-101.61,36.57,0.125,-0.62,1,0,0.16,-1.02,1,0,0.142,-0.97,1,0,0.156,-0.45,1,0,0.196,-0.35,0.881,0,0.142,-0.9,1,0,0.156,-0.61,1,0
53182,20110711,-101.61,36.57,0.121,-0.67,1,0,0.154,-1.16,1,0,0.141,-0.99,1,0,0.155,-0.45,1,0,0.195,-0.34,0.905,0,0.138,-1,1,0,0.153,-0.63,1,0
53182,20110712,-101.61,36.57,0.118,-0.72,1,0,0.149,-1.27,1,0,0.141,-0.99,1,0,0.154,-0.46,1,0,0.195,-0.34,0.935,0,0.134,-1.07,1,0,0.151,-0.65,1,0
53182,20110713,-101.61,36.57,0.115,-0.78,1,0,0.144,-1.37,1,0,0.14,-0.97,1,0,0.152,-0.47,1,0,0.195,-0.33,0.899,0,0.13,-1.14,1,0,0.149,-0.66,1,0
53182,20110714,-101.61,36.57,0.111,-0.84,1,0,0.14,-1.46,1,0,0.139,-0.96,1,0,0.151,-0.48,1,0,0.194,-0.33,0.917,0,0.126,-1.21,1,0,0.147,-0.67,1,0
53182,20110715,-101.61,36.57,0.109,-0.89,1,0,0.136,-1.51,1,0,0.138,-0.93,1,0,0.15,-0.49,1,0,0.194,-0.32,0.917,0,0.122,-1.26,1,0,0.145,-0.67,1,0
53182,20110716,-101.61,36.57,0.106,-0.91,1,0,0.133,-1.54,1,0,0.137,-0.89,1,0,0.148,-0.49,1,0,0.193,-0.32,0.923,0,0.12,-1.28,1,0,0.144,-0.67,1,0
53182,20110717,-101.61,36.57,0.104,-0.91,1,0,0.131,-1.54,1,0,0.137,-0.85,1,0,0.147,-0.5,1,0,0.193,-0.32,0.917,0,0.118,-1.29,1,0,0.142,-0.68,1,0
53182,20110718,-101.61,36.57,0.103,-0.91,1,0,0.128,-1.53,1,0,0.136,-0.8,1,0,0.146,-0.5,1,0,0.193,-0.31,0.905,0,0.115,-1.28,1,0,0.141,-0.68,1,0
53182,20110719,-101.61,36.57,0.101,-0.88,1,0,0.126,-1.5,1,0,0.135,-0.76,1,0,0.145,-0.5,1,0,0.193,-0.31,0.893,0,0.114,-1.26,1,0,0.14,-0.68,1,0
53182,20110720,-101.61,36.57,0.1,-0.85,1,0,0.125,-1.46,1,0,0.134,-0.72,1,0,0.143,-0.49,1,0,0.192,-0.3,0.94,0,0.112,-1.24,1,0,0.139,-0.68,1,0
53182,20110721,-101.61,36.57,0.099,-0.8,1,0,0.124,-1.41,1,0,0.134,-0.68,1,0,0.142,-0.49,1,0,0.192,-0.3,0.94,0,0.112,-1.2,1,0,0.138,-0.67,1,0
53182,20110722,-101.61,36.57,0.099,-0.75,1,0,0.123,-1.36,1,0,0.134,-0.63,1,0,0.142,-0.48,1,0,0.192,-0.29,0.929,0,0.111,-1.14,1,0,0.138,-0.67,1,0
53182,20110723,-101.61,36.57,0.098,-0.71,1,0,0.122,-1.3,1,0,0.133,-0.59,1,0,0.141,-0.48,1,0,0.192,-0.28,0.863,0,0.11,-1.06,1,0,0.137,-0.66,1,0
53182,20110724,-101.61,36.57,0.097,-0.67,1,0,0.121,-1.21,1,0,0.133,-0.57,1,0,0.141,-0.47,1,0,0.192,-0.28,0.833,0,0.109,-0.98,1,0,0.137,-0.65,1,0
53182,20110725,-101.61,36.57,0.095,-0.64,1,0,0.119,-1.12,1,0,0.132,-0.53,1,0,0.141,-0.47,1,0,0.192,-0.27,0.75,0,0.107,-0.9,1,0,0.136,-0.65,1,0
53182,20110726,-101.61,36.57,0.095,-0.6,1,0,0.118,-1.02,1,0,0.132,-0.49,1,0,0.14,-0.47,1,0,0.192,-0.27,0.679,0,0.106,-0.82,1,0,0.135,-0.64,1,0
53182,20110727,-101.61,36.57,0.094,-0.58,1,0,0.117,-0.92,1,0,0.131,-0.46,1,0,0.14,-0.48,1,0,0.192,-0.27,0.679,0,0.106,-0.74,1,0,0.135,-0.64,1,0
53182,20110728,-101.61,36.57,0.093,-0.55,1,0,0.116,-0.82,1,0,0.13,-0.43,1,0,0.14,-0.48,1,0,0.192,-0.26,0.571,0,0.105,-0.67,1,0,0.135,-0.64,1,0
53182,20110729,-101.61,36.57,0.093,-0.54,1,0,0.116,-0.74,1,0,0.13,-0.4,1,0,0.14,-0.49,1,0,0.193,-0.26,0.47,0,0.104,-0.63,1,0,0.134,-0.65,1,0
53182,20110730,-101.61,36.57,0.092,-0.54,1,0,0.115,-0.68,1,0,0.129,-0.37,1,0,0.14,-0.51,1,0,0.193,-0.26,0.452,0,0.103,-0.61,1,0,0.134,-0.67,1,0
53182,20110731,-101.61,36.57,0.091,-0.54,1,0,0.114,-0.66,1,0,0.128,-0.35,1,0,0.139,-0.52,1,0,0.193,-0.26,0.435,0,0.103,-0.6,1,0,0.133,-0.7,1,0
53182,20110801,-101.61,36.57,0.091,-0.55,1,0,0.113,-0.65,1,0,0.128,-0.34,1,0,0.138,-0.53,1,0,0.193,-0.26,0.47,0,0.102,-0.6,1,0,0.133,-0.72,1,0
53182,20110802,-101.61,36.57,0.091,-0.56,1,0,0.113,-0.65,1,0,0.127,-0.33,1,0,0.137,-0.54,1,0,0.193,-0.26,0.512,0,0.102,-0.61,1,0,0.132,-0.74,1,0
53182,20110803,-101.61,36.57,0.091,-0.57,1,0,0.112,-0.65,1,0,0.126,-0.33,1,0,0.137,-0.55,1,0,0.193,-0.25,0.429,0,0.101,-0.61,1,0,0.132,-0.77,1,0
53182,20110804,-101.61,36.57,0.09,-0.58,1,0,0.112,-0.65,1,0,0.126,-0.34,1,0,0.136,-0.56,1,0,0.193,-0.26,0.518,0,0.101,-0.62,1,0,0.131,-0.79,1,0
53182,20110805,-101.61,36.57,0.09,-0.59,1,0,0.111,-0.65,1,0,0.125,-0.36,1,0,0.135,-0.57,1,0,0.192,-0.26,0.613,0,0.101,-0.63,1,0,0.131,-0.81,1,0
53182,20110806,-101.61,36.57,0.09,-0.6,1,0,0.111,-0.66,1,0,0.125,-0.38,1,0,0.135,-0.57,1,0,0.192,-0.26,0.625,0,0.1,-0.63,1,0,0.13,-0.83,1,0
53182,20110807,-101.61,36.57,0.09,-0.61,1,0,0.11,-0.66,1,0,0.124,-0.41,1,0,0.135,-0.58,1,0,0.192,-0.26,0.649,0,0.1,-0.64,1,0,0.13,-0.84,1,0
53182,20110808,-101.61,36.57,0.09,-0.62,1,0,0.11,-0.67,1,0,0.123,-0.43,1,0,0.134,-0.58,1,0,0.192,-0.27,0.702,0,0.1,-0.65,1,0,0.13,-0.85,1,0
53182,20110809,-101.61,36.57,0.091,-0.63,1,0,0.11,-0.68,1,0,0.122,-0.46,1,0,0.133,-0.59,1,0,0.192,-0.27,0.762,0,0.1,-0.66,1,0,0.13,-0.86,1,0
53182,20110810,-101.61,36.57,0.092,-0.65,1,0,0.109,-0.69,1,0,0.122,-0.48,1,0,0.133,-0.6,1,0,0.192,-0.27,0.827,0,0.101,-0.67,1,0,0.13,-0.87,1,0
53182,20110811,-101.61,36.57,0.093,-0.67,1,0,0.109,-0.7,1,0,0.121,-0.5,1,0,0.133,-0.6,1,0,0.192,-0.27,0.827,0,0.101,-0.68,1,0,0.129,-0.88,1,0
53182,20110812,-101.61,36.57,0.095,-0.69,1,0,0.109,-0.72,1,0,0.12,-0.51,1,0,0.132,-0.61,1,0,0.192,-0.28,0.845,0,0.102,-0.69,1,0,0.13,-0.88,1,0
53182,20110813,-101.61,36.57,0.097,-0.71,1,0,0.109,-0.73,1,0,0.12,-0.52,1,0,0.131,-0.63,1,0,0.192,-0.29,0.917,0,0.103,-0.71,1,0,0.13,-0.89,1,0
53182,20110814,-101.61,36.57,0.099,-0.73,1,0,0.11,-0.75,1,0,0.119,-0.52,1,0,0.131,-0.64,1,0,0.191,-0.29,0.958,0,0.104,-0.72,1,0,0.13,-0.9,1,0
53182,20110815,-101.61,36.57,0.1,-0.75,1,0,0.11,-0.76,1,0,0.119,-0.53,1,0,0.13,-0.66,1,0,0.192,-0.29,0.964,0,0.105,-0.73,1,0,0.13,-0.92,1,0
53182,20110816,-101.61,36.57,0.102,-0.76,1,0,0.111,-0.78,1,0,0.119,-0.54,1,0,0.13,-0.68,1,0,0.191,-0.3,0.964,0,0.106,-0.75,1,0,0.131,-0.94,1,0
53182,20110817,-101.61,36.57,0.103,-0.77,1,0,0.112,-0.8,1,0,0.118,-0.56,1,0,0.13,-0.7,1,0,0.191,-0.3,0.982,0,0.107,-0.77,1,0,0.131,-0.97,1,0
53182,20110818,-101.61,36.57,0.104,-0.76,1,0,0.113,-0.81,1,0,0.118,-0.57,1,0,0.13,-0.73,1,0,0.19,-0.3,1,0,0.109,-0.77,1,0,0.131,-0.99,1,0
53182,20110819,-101.61,36.57,0.106,-0.75,1,0,0.114,-0.83,1,0,0.119,-0.59,1,0,0.13,-0.75,1,0,0.19,-0.3,1,0,0.11,-0.78,1,0,0.132,-1.02,1,0
53182,20110820,-101.61,36.57,0.107,-0.73,1,0,0.116,-0.84,1,0,0.119,-0.62,1,0,0.13,-0.77,1,0,0.191,-0.3,1,0,0.111,-0.79,1,0,0.132,-1.04,1,0
53182,20110821,-101.61,36.57,0.107,-0.72,1,0,0.117,-0.86,1,0,0.119,-0.64,1,0,0.13,-0.78,1,0,0.19,-0.3,1,0,0.112,-0.8,1,0,0.133,-1.06,1,0
53182,20110822,-101.61,36.57,0.107,-0.71,1,0,0.118,-0.88,1,0,0.12,-0.68,1,0,0.13,-0.79,1,0,0.19,-0.3,1,0,0.113,-0.81,1,0,0.133,-1.08,1,0
53182,20110823,-101.61,36.57,0.107,-0.71,1,0,0.118,-0.91,1,0,0.12,-0.71,1,0,0.13,-0.8,1,0,0.19,-0.3,1,0,0.113,-0.83,1,0,0.133,-1.1,1,0
53182,20110824,-101.61,36.57,0.107,-0.71,1,0,0.119,-0.94,1,0,0.121,-0.75,1,0,0.13,-0.81,1,0,0.19,-0.3,1,0,0.113,-0.85,1,0,0.133,-1.11,1,0
53182,20110825,-101.61,36.57,0.106,-0.73,1,0,0.119,-0.97,1,0,0.121,-0.79,1,0,0.13,-0.82,1,0,0.19,-0.29,1,0,0.113,-0.88,1,0,0.133,-1.12,1,0
53182,20110826,-101.61,36.57,0.105,-0.75,1,0,0.119,-0.99,1,0,0.121,-0.83,1,0,0.129,-0.83,1,0,0.19,-0.29,1,0,0.112,-0.91,1,0,0.133,-1.13,1,0
53182,20110827,-101.61,36.57,0.104,-0.77,1,0,0.119,-1.01,1,0,0.121,-0.86,1,0,0.13,-0.84,1,0,0.19,-0.29,1,0,0.112,-0.94,1,0,0.133,-1.13,1,0
53182,20110828,-101.61,36.57,0.103,-0.8,1,0,0.119,-1.04,1,0,0.122,-0.89,1,0,0.129,-0.85,1,0,0.19,-0.29,1,0,0.111,-0.97,1,0,0.133,-1.12,1,0
53182,20110829,-101.61,36.57,0.102,-0.83,1,0,0.119,-1.05,1,0,0.122,-0.92,1,0,0.129,-0.85,1,0,0.19,-0.28,1,0,0.11,-0.99,1,0,0.132,-1.1,1,0
53182,20110830,-101.61,36.57,0.1,-0.86,1,0,0.118,-1.06,1,0,0.122,-0.94,1,0,0.129,-0.86,1,0,0.191,-0.28,0.988,0,0.109,-1.01,1,0,0.132,-1.08,1,0
53182,20110831,-101.61,36.57,0.1,-0.88,1,0,0.117,-1.07,1,0,0.122,-0.95,1,0,0.129,-0.87,1,0,0.191,-0.27,0.988,0,0.108,-1.02,1,0,0.132,-1.06,1,0
53182,20110901,-101.61,36.57,0.099,-0.89,1,0,0.117,-1.07,1,0,0.122,-0.95,1,0,0.129,-0.87,1,0,0.191,-0.26,0.988,0,0.108,-1.03,1,0,0.132,-1.04,1,0
53182,20110902,-101.61,36.57,0.099,-0.89,1,0,0.116,-1.08,1,0,0.121,-0.95,1,0,0.129,-0.88,1,0,0.191,-0.26,0.982,0,0.108,-1.03,1,0,0.131,-1.03,1,0
53182,20110903,-101.61,36.57,0.099,-0.89,1,0,0.116,-1.08,1,0,0.121,-0.95,1,0,0.129,-0.88,1,0,0.191,-0.25,0.982,0,0.107,-1.04,1,0,0.131,-1.02,1,0
53182,20110904,-101.61,36.57,0.099,-0.89,1,0,0.116,-1.09,1,0,0.121,-0.96,1,0,0.129,-0.89,1,0,0.191,-0.25,0.982,0,0.107,-1.04,1,0,0.131,-1.02,1,0
53182,20110905,-101.61,36.57,0.099,-0.91,1,0,0.115,-1.11,1,0,0.121,-0.98,1,0,0.129,-0.9,1,0,0.191,-0.24,0.935,0,0.107,-1.06,1,0,0.131,-1.02,1,0
53182,20110906,-101.61,36.57,0.098,-0.92,1,0,0.115,-1.13,1,0,0.12,-1,1,0,0.129,-0.9,1,0,0.191,-0.24,0.899,0,0.106,-1.08,1,0,0.131,-1.03,1,0
53182,20110907,-101.61,36.57,0.097,-0.94,1,0,0.114,-1.17,1,0,0.12,-1.04,1,0,0.128,-0.89,1,0,0.192,-0.23,0.827,0,0.106,-1.11,1,0,0.13,-1.04,1,0
53182,20110908,-101.61,36.57,0.095,-0.98,1,0,0.113,-1.21,1,0,0.119,-1.09,1,0,0.128,-0.88,1,0,0.192,-0.23,0.798,0,0.104,-1.17,1,0,0.129,-1.05,1,0
53182,20110909,-101.61,36.57,0.094,-1.02,1,0,0.111,-1.26,1,0,0.118,-1.14,1,0,0.127,-0.87,1,0,0.192,-0.23,0.792,0,0.103,-1.22,1,0,0.128,-1.07,1,0
53182,20110910,-101.61,36.57,0.092,-1.07,1,0,0.11,-1.31,1,0,0.117,-1.19,1,0,0.127,-0.86,1,0,0.191,-0.23,0.792,0,0.101,-1.28,1,0,0.127,-1.08,1,0
53182,20110911,-101.61,36.57,0.09,-1.12,1,0,0.109,-1.37,1,0,0.116,-1.23,1,0,0.126,-0.85,1,0,0.191,-0.23,0.786,0,0.1,-1.34,1,0,0.127,-1.1,1,0
53182,20110912,-101.61,36.57,0.09,-1.16,1,0,0.109,-1.42,1,0,0.116,-1.26,1,0,0.125,-0.84,1,0,0.191,-0.23,0.833,0,0.099,-1.39,1,0,0.126,-1.1,1,0
53182,20110913,-101.61,36.57,0.09,-1.19,1,0,0.108,-1.46,1,0,0.115,-1.28,1,0,0.125,-0.84,1,0,0.191,-0.23,0.881,0,0.099,-1.44,1,0,0.126,-1.11,1,0
53182,20110914,-101.61,36.57,0.089,-1.24,1,0,0.108,-1.5,1,0,0.115,-1.28,1,0,0.124,-0.86,1,0,0.19,-0.23,0.952,0,0.099,-1.49,1,0,0.125,-1.12,1,0
53182,20110915,-101.61,36.57,0.089,-1.29,1,0,0.108,-1.55,1,0,0.115,-1.28,1,0,0.124,-0.88,1,0,0.19,-0.23,0.958,0,0.098,-1.55,1,0,0.125,-1.13,1,0
53182,20110916,-101.61,36.57,0.087,-1.35,1,0,0.107,-1.61,1,0,0.114,-1.28,1,0,0.124,-0.9,1,0,0.19,-0.23,0.97,0,0.097,-1.63,1,0,0.125,-1.14,1,0
53182,20110917,-101.61,36.57,0.087,-1.4,1,0,0.106,-1.67,1,0,0.114,-1.29,1,0,0.123,-0.93,1,0,0.19,-0.23,0.97,0,0.096,-1.69,1,0,0.124,-1.16,1,0
53182,20110918,-101.61,36.57,0.087,-1.42,1,0,0.105,-1.73,1,0,0.113,-1.31,1,0,0.123,-0.96,1,0,0.19,-0.23,0.976,0,0.096,-1.74,1,0,0.123,-1.17,1,0
53182,20110919,-101.61,36.57,0.087,-1.42,1,0,0.105,-1.78,1,0,0.112,-1.32,1,0,0.122,-0.99,1,0,0.19,-0.24,0.976,0,0.096,-1.77,1,0,0.123,-1.19,1,0
53182,20110920,-101.61,36.57,0.087,-1.39,1,0,0.104,-1.82,1,0,0.112,-1.34,1,0,0.122,-1.02,1,0,0.189,-0.24,0.976,0,0.095,-1.77,1,0,0.123,-1.21,1,0
53182,20110921,-101.61,36.57,0.087,-1.34,1,0,0.104,-1.85,1,0,0.111,-1.36,1,0,0.121,-1.04,1,0,0.189,-0.24,0.976,0,0.095,-1.73,1,0,0.122,-1.24,1,0
53182,20110922,-101.61,36.57,0.089,-1.26,1,0,0.104,-1.87,1,0,0.111,-1.37,1,0,0.121,-1.05,1,0,0.188,-0.24,0.994,0,0.096,-1.66,1,0,0.122,-1.25,1,0
53182,20110923,-101.61,36.57,0.091,-1.16,1,0,0.104,-1.85,1,0,0.11,-1.38,1,0,0.12,-1.07,1,0,0.187,-0.25,0.994,0,0.097,-1.55,1,0,0.123,-1.25,1,0
53182,20110924,-101.61,36.57,0.093,-1.06,1,0,0.105,-1.82,1,0,0.111,-1.38,1,0,0.12,-1.08,1,0,0.187,-0.25,0.994,0,0.099,-1.44,1,0,0.123,-1.24,1,0
53182,20110925,-101.61,36.57,0.094,-0.96,1,0,0.105,-1.78,1,0,0.11,-1.38,1,0,0.119,-1.08,1,0,0.187,-0.24,0.994,0,0.1,-1.33,1,0,0.123,-1.22,1,0
53182,20110926,-101.61,36.57,0.096,-0.88,1,0,0.106,-1.73,1,0,0.11,-1.37,1,0,0.119,-1.09,1,0,0.186,-0.24,0.994,0,0.101,-1.22,1,0,0.123,-1.2,1,0
53182,20110927,-101.61,36.57,0.097,-0.81,1,0,0.106,-1.67,1,0,0.11,-1.37,1,0,0.119,-1.1,1,0,0.186,-0.24,0.994,0,0.102,-1.15,1,0,0.124,-1.17,1,0
53182,20110928,-101.61,36.57,0.098,-0.74,1,0,0.107,-1.6,1,0,0.11,-1.36,1,0,0.119,-1.1,1,0,0.186,-0.24,0.994,0,0.103,-1.09,1,0,0.124,-1.15,1,0
53182,20110929,-101.61,36.57,0.1,-0.68,1,0,0.108,-1.53,1,0,0.11,-1.3,1,0,0.119,-1.11,1,0,0.185,-0.25,1,0,0.104,-1.03,1,0,0.124,-1.12,1,0
53182,20110930,-101.61,36.57,0.102,-0.64,1,0,0.109,-1.47,1,0,0.111,-1.23,1,0,0.118,-1.12,1,0,0.185,-0.25,1,0,0.105,-0.99,1,0,0.125,-1.1,1,0
53182,20111001,-101.61,36.57,0.103,-0.6,1,0,0.109,-1.42,1,0,0.111,-1.16,1,0,0.118,-1.13,1,0,0.185,-0.24,1,0,0.106,-0.96,1,0,0.125,-1.09,1,0
53182,20111002,-101.61,36.57,0.104,-0.57,1,0,0.11,-1.38,1,0,0.111,-1.09,1,0,0.118,-1.14,1,0,0.184,-0.24,1,0,0.107,-0.94,1,0,0.126,-1.09,1,0
53182,20111003,-101.61,36.57,0.105,-0.55,1,0,0.11,-1.35,1,0,0.111,-1.02,1,0,0.119,-1.15,1,0,0.184,-0.24,0.988,0,0.108,-0.93,1,0,0.126,-1.1,1,0
53182,20111004,-101.61,36.57,0.106,-0.54,1,0,0.111,-1.31,1,0,0.111,-0.95,1,0,0.119,-1.16,1,0,0.184,-0.23,0.964,0,0.108,-0.92,1,0,0.126,-1.1,1,0
53182,20111005,-101.61,36.57,0.106,-0.53,1,0,0.111,-1.28,1,0,0.111,-0.89,1,0,0.118,-1.17,1,0,0.185,-0.23,0.935,0,0.109,-0.91,1,0,0.126,-1.1,1,0
53182,20111006,-101.61,36.57,0.106,-0.53,1,0,0.111,-1.27,1,0,0.111,-0.87,1,0,0.118,-1.18,1,0,0.185,-0.22,0.869,0,0.109,-0.91,1,0,0.126,-1.11,1,0
53182,20111007,-101.61,36.57,0.106,-0.52,1,0,0.111,-1.24,1,0,0.111,-0.87,1,0,0.118,-1.18,1,0,0.186,-0.21,0.792,0,0.109,-0.9,1,0,0.126,-1.11,1,0
53182,20111008,-101.61,36.57,0.107,-0.52,1,0,0.112,-1.2,1,0,0.111,-0.86,1,0,0.118,-1.14,1,0,0.186,-0.21,0.78,0,0.109,-0.89,1,0,0.127,-1.11,1,0
53182,20111009,-101.61,36.57,0.107,-0.53,1,0,0.112,-1.17,1,0,0.111,-0.87,1,0,0.118,-1.09,1,0,0.185,-0.21,0.78,0,0.109,-0.89,1,0,0.127,-1.11,1,0
53182,20111010,-101.61,36.57,0.105,-0.55,1,0,0.111,-1.14,1,0,0.11,-0.88,1,0,0.118,-1.03,1,0,0.185,-0.21,0.792,0,0.108,-0.89,1,0,0.126,-1.12,1,0
53182,20111011,-101.61,36.57,0.104,-0.57,1,0,0.111,-1.1,1,0,0.109,-0.9,1,0,0.118,-0.98,1,0,0.185,-0.21,0.744,0,0.107,-0.9,1,0,0.125,-1.14,1,0
53182,20111012,-101.61,36.57,0.103,-0.59,1,0,0.11,-1.06,1,0,0.109,-0.92,1,0,0.118,-0.92,1,0,0.185,-0.21,0.762,0,0.106,-0.89,1,0,0.125,-1.16,1,0
53182,20111013,-101.61,36.57,0.102,-0.61,1,0,0.11,-1.02,1,0,0.108,-0.94,1,0,0.117,-0.88,1,0,0.185,-0.22,0.827,0,0.106,-0.88,1,0,0.124,-1.17,1,0
53182,20111014,-101.61,36.57,0.101,-0.63,1,0,0.109,-0.98,1,0,0.108,-0.97,1,0,0.117,-0.83,1,0,0.184,-0.22,0.905,0,0.105,-0.86,1,0,0.124,-1.19,1,0
53182,20111015,-101.61,36.57,0.1,-0.65,1,0,0.108,-0.95,1,0,0.107,-0.99,1,0,0.117,-0.82,1,0,0.183,-0.23,0.917,0,0.104,-0.85,1,0,0.123,-1.21,1,0
53182,20111016,-101.61,36.57,0.099,-0.65,1,0,0.108,-0.92,1,0,0.106,-1.03,1,0,0.116,-0.82,1,0,0.183,-0.23,0.917,0,0.104,-0.82,1,0,0.123,-1.22,1,0
53182,20111017,-101.61,36.57,0.1,-0.65,1,0,0.108,-0.88,1,0,0.106,-1.05,1,0,0.116,-0.82,1,0,0.183,-0.24,0.917,0,0.104,-0.79,1,0,0.123,-1.22,1,0
53182,20111018,-101.61,36.57,0.1,-0.65,1,0,0.108,-0.85,1,0,0.106,-1.07,1,0,0.116,-0.81,1,0,0.182,-0.24,0.988,0,0.104,-0.77,1,0,0.122,-1.22,1,0
53182,20111019,-101.61,36.57,0.099,-0.65,1,0,0.108,-0.83,1,0,0.106,-1.09,1,0,0.116,-0.8,1,0,0.182,-0.24,1,0,0.103,-0.75,1,0,0.122,-1.24,1,0
53182,20111020,-101.61,36.57,0.098,-0.65,1,0,0.107,-0.79,1,0,0.105,-1.11,1,0,0.115,-0.79,1,0,0.182,-0.24,1,0,0.103,-0.74,1,0,0.122,-1.2,1,0
53182,20111021,-101.61,36.57,0.097,-0.65,1,0,0.107,-0.75,1,0,0.105,-1.11,1,0,0.115,-0.78,1,0,0.182,-0.24,1,0,0.102,-0.73,1,0,0.121,-1.12,1,0
53182,20111022,-101.61,36.57,0.097,-0.65,1,0,0.107,-0.71,1,0,0.105,-1.09,1,0,0.114,-0.78,1,0,0.182,-0.24,1,0,0.102,-0.71,1,0,0.121,-1.04,1,0
53182,20111023,-101.61,36.57,0.096,-0.64,1,0,0.107,-0.67,1,0,0.105,-1.05,1,0,0.114,-0.76,1,0,0.182,-0.23,1,0,0.101,-0.7,1,0,0.121,-0.97,1,0
53182,20111024,-101.61,36.57,0.096,-0.64,1,0,0.106,-0.64,1,0,0.104,-0.97,1,0,0.113,-0.71,1,0,0.182,-0.23,1,0,0.101,-0.7,1,0,0.12,-0.89,1,0
53182,20111025,-101.61,36.57,0.096,-0.63,1,0,0.107,-0.61,1,0,0.104,-0.87,1,0,0.113,-0.67,1,0,0.182,-0.23,1,0,0.101,-0.69,1,0,0.12,-0.81,1,0
53182,20111026,-101.61,36.57,0.096,-0.63,1,0,0.107,-0.59,1,0,0.105,-0.78,1,0,0.113,-0.62,1,0,0.182,-0.23,1,0,0.102,-0.67,1,0,0.121,-0.71,1,0
53182,20111027,-101.61,36.57,0.096,-0.63,1,0,0.107,-0.57,1,0,0.105,-0.69,1,0,0.113,-0.58,1,0,0.182,-0.22,1,0,0.102,-0.66,1,0,0.121,-0.67,1,0
53182,20111028,-101.61,36.57,0.095,-0.63,1,0,0.107,-0.57,1,0,0.105,-0.61,1,0,0.113,-0.53,1,0,0.182,-0.22,1,0,0.101,-0.65,1,0,0.12,-0.67,1,0
53182,20111029,-101.61,36.57,0.093,-0.63,1,0,0.106,-0.58,1,0,0.104,-0.54,1,0,0.113,-0.49,1,0,0.181,-0.22,1,0,0.099,-0.64,1,0,0.119,-0.67,1,0
53182,20111030,-101.61,36.57,0.091,-0.64,1,0,0.105,-0.58,1,0,0.104,-0.49,1,0,0.112,-0.46,1,0,0.181,-0.21,1,0,0.098,-0.63,1,0,0.119,-0.66,1,0
53182,20111031,-101.61,36.57,0.09,-0.64,1,0,0.104,-0.58,1,0,0.103,-0.49,1,0,0.112,-0.46,1,0,0.181,-0.21,1,0,0.097,-0.62,1,0,0.118,-0.66,1,0
53182,20111101,-101.61,36.57,0.089,-0.64,1,0,0.103,-0.58,1,0,0.102,-0.49,1,0,0.112,-0.47,1,0,0.18,-0.21,1,0,0.096,-0.61,1,0,0.117,-0.65,1,0
53182,20111102,-101.61,36.57,0.088,-0.63,1,0,0.102,-0.59,1,0,0.102,-0.49,1,0,0.111,-0.47,1,0,0.18,-0.21,1,0,0.095,-0.61,1,0,0.117,-0.65,1,0
53182,20111103,-101.61,36.57,0.087,-0.62,1,0,0.101,-0.59,1,0,0.101,-0.49,1,0,0.11,-0.47,1,0,0.18,-0.21,1,0,0.094,-0.6,1,0,0.116,-0.64,1,0
53182,20111104,-101.61,36.57,0.086,-0.6,1,0,0.101,-0.59,1,0,0.101,-0.48,1,0,0.11,-0.47,1,0,0.179,-0.21,1,0,0.093,-0.59,1,0,0.115,-0.64,1,0
53182,20111105,-101.61,36.57,0.086,-0.59,1,0,0.1,-0.59,1,0,0.1,-0.48,1,0,0.109,-0.48,1,0,0.179,-0.21,1,0,0.093,-0.59,1,0,0.115,-0.63,1,0
53182,20111106,-101.61,36.57,0.085,-0.58,1,0,0.1,-0.59,1,0,0.1,-0.48,1,0,0.109,-0.48,1,0,0.179,-0.21,1,0,0.093,-0.58,1,0,0.115,-0.63,1,0
53182,20111107,-101.61,36.57,0.085,-0.56,1,0,0.1,-0.59,1,0,0.1,-0.48,1,0,0.109,-0.48,1,0,0.178,-0.22,1,0,0.092,-0.58,1,0,0.114,-0.62,1,0
53182,20111108,-101.61,36.57,0.084,-0.56,1,0,0.099,-0.59,1,0,0.099,-0.48,1,0,0.108,-0.48,1,0,0.178,-0.21,1,0,0.091,-0.57,1,0,0.114,-0.62,1,0
53182,20111109,-101.61,36.57,0.082,-0.56,1,0,0.098,-0.6,1,0,0.098,-0.48,1,0,0.108,-0.48,1,0,0.178,-0.22,1,0,0.09,-0.58,1,0,0.113,-0.62,1,0
53182,20111110,-101.61,36.57,0.081,-0.56,1,0,0.097,-0.6,1,0,0.098,-0.48,1,0,0.107,-0.48,1,0,0.177,-0.22,1,0,0.089,-0.57,1,0,0.112,-0.62,1,0
53182,20111111,-101.61,36.57,0.081,-0.55,1,0,0.097,-0.61,1,0,0.097,-0.48,1,0,0.107,-0.48,1,0,0.177,-0.22,1,0,0.089,-0.57,1,0,0.112,-0.62,1,0
53182,20111112,-101.61,36.57,0.081,-0.55,1,0,0.096,-0.61,1,0,0.097,-0.48,1,0,0.106,-0.48,1,0,0.177,-0.22,1,0,0.088,-0.57,1,0,0.111,-0.62,1,0
53182,20111113,-101.61,36.57,0.081,-0.54,1,0,0.096,-0.61,1,0,0.096,-0.48,1,0,0.106,-0.48,1,0,0.176,-0.22,1,0,0.088,-0.57,1,0,0.111,-0.61,1,0
53182,20111114,-101.61,36.57,0.081,-0.54,1,0,0.096,-0.61,1,0,0.096,-0.48,1,0,0.106,-0.48,1,0,0.176,-0.22,1,0,0.089,-0.57,1,0,0.111,-0.61,1,0
53182,20111115,-101.61,36.57,0.081,-0.53,1,0,0.096,-0.62,1,0,0.096,-0.47,1,0,0.106,-0.48,1,0,0.176,-0.22,1,0,0.089,-0.57,1,0,0.111,-0.6,1,0
53182,20111116,-101.61,36.57,0.082,-0.53,1,0,0.097,-0.62,1,0,0.097,-0.47,1,0,0.106,-0.48,1,0,0.176,-0.22,1,0,0.089,-0.58,1,0,0.111,-0.6,1,0
53182,20111117,-101.61,36.57,0.082,-0.52,1,0,0.097,-0.63,1,0,0.097,-0.46,1,0,0.106,-0.48,1,0,0.176,-0.22,1,0,0.09,-0.58,1,0,0.111,-0.59,1,0
53182,20111118,-101.61,36.57,0.082,-0.52,1,0,0.097,-0.63,1,0,0.097,-0.46,1,0,0.105,-0.48,1,0,0.175,-0.22,1,0,0.09,-0.58,1,0,0.111,-0.59,1,0
53182,20111119,-101.61,36.57,0.083,-0.51,1,0,0.097,-0.63,1,0,0.097,-0.45,1,0,0.105,-0.48,1,0,0.176,-0.21,0.994,0,0.09,-0.58,1,0,0.111,-0.59,1,0
53182,20111120,-101.61,36.57,0.083,-0.51,1,0,0.097,-0.64,1,0,0.097,-0.44,1,0,0.105,-0.47,1,0,0.175,-0.21,0.994,0,0.09,-0.58,1,0,0.111,-0.58,1,0
53182,20111121,-101.61,36.57,0.082,-0.51,1,0,0.096,-0.64,1,0,0.097,-0.44,1,0,0.105,-0.47,1,0,0.175,-0.21,0.994,0,0.089,-0.58,1,0,0.111,-0.58,1,0
53182,20111122,-101.61,36.57,0.081,-0.52,1,0,0.095,-0.65,1,0,0.096,-0.44,1,0,0.105,-0.47,1,0,0.175,-0.21,0.994,0,0.088,-0.59,1,0,0.11,-0.58,1,0
53182,20111123,-101.61,36.57,0.081,-0.51,1,0,0.095,-0.66,1,0,0.095,-0.44,1,0,0.104,-0.48,1,0,0.174,-0.21,0.994,0,0.088,-0.6,1,0,0.11,-0.59,1,0
53182,20111124,-101.61,36.57,0.081,-0.51,1,0,0.094,-0.66,1,0,0.095,-0.44,1,0,0.104,-0.48,1,0,0.174,-0.21,0.994,0,0.088,-0.61,1,0,0.11,-0.58,1,0
53182,20111125,-101.61,36.57,0.081,-0.5,1,0,0.095,-0.67,1,0,0.095,-0.43,1,0,0.104,-0.47,1,0,0.174,-0.21,0.994,0,0.088,-0.61,1,0,0.11,-0.58,1,0
53182,20111126,-101.61,36.57,0.082,-0.5,1,0,0.095,-0.67,1,0,0.095,-0.43,1,0,0.104,-0.47,1,0,0.173,-0.21,1,0,0.088,-0.62,1,0,0.11,-0.58,1,0
53182,20111127,-101.61,36.57,0.081,-0.5,1,0,0.095,-0.68,1,0,0.095,-0.42,1,0,0.104,-0.47,1,0,0.173,-0.21,1,0,0.088,-0.63,1,0,0.11,-0.58,1,0
53182,20111128,-101.61,36.57,0.081,-0.5,1,0,0.095,-0.69,1,0,0.094,-0.42,1,0,0.104,-0.47,1,0,0.173,-0.2,1,0,0.088,-0.64,1,0,0.109,-0.58,1,0
53182,20111129,-101.61,36.57,0.081,-0.49,1,0,0.095,-0.7,1,0,0.094,-0.41,1,0,0.104,-0.47,1,0,0.173,-0.2,0.964,0,0.088,-0.64,1,0,0.109,-0.58,1,0
53182,20111130,-101.61,36.57,0.081,-0.49,1,0,0.095,-0.7,1,0,0.094,-0.41,1,0,0.104,-0.47,1,0,0.173,-0.2,0.964,0,0.088,-0.64,1,0,0.109,-0.58,1,0